TimePST,TemperatureF,Dew PointF,Humidity,Sea Level PressureIn,VisibilityMPH,Wind Direction,Wind SpeedMPH,Gust SpeedMPH,PrecipitationIn,Events,Conditions,WindDirDegrees,DateUTC
12:09 AM,33.8,32.0,93,29.56,1.5,Calm,Calm,-,N/A,,Overcast,0,2012-12-12 08:09:00
12:18 AM,33.8,32.0,93,29.55,3.0,Calm,Calm,-,N/A,,Overcast,0,2012-12-12 08:18:00
12:34 AM,33.8,32.0,93,29.55,4.0,Calm,Calm,-,N/A,,Overcast,0,2012-12-12 08:34:00
12:53 AM,33.1,32.0,96,29.61,2.0,Calm,Calm,-,0.00,Snow,Light Snow,0,2012-12-12 08:53:00
12:59 AM,33.8,32.0,93,29.56,1.2,Calm,Calm,-,0.01,Snow,Light Snow,0,2012-12-12 08:59:00
1:22 AM,33.8,32.0,93,29.56,0.8,Calm,Calm,-,0.02,Snow,Light Snow,0,2012-12-12 09:22:00
1:32 AM,33.8,32.0,93,29.56,1.0,Calm,Calm,-,0.03,Snow,Light Snow,0,2012-12-12 09:32:00
1:53 AM,33.1,32.0,96,29.61,1.0,Calm,Calm,-,0.04,Snow,Light Snow,0,2012-12-12 09:53:00
2:24 AM,33.8,32.0,93,29.56,1.2,Calm,Calm,-,0.01,Snow,Light Snow,0,2012-12-12 10:24:00
2:32 AM,33.8,32.0,93,29.56,1.5,Calm,Calm,-,0.02,Snow,Light Snow,0,2012-12-12 10:32:00
2:44 AM,33.8,32.0,93,29.56,2.5,Calm,Calm,-,0.02,Snow,Light Snow,0,2012-12-12 10:44:00
2:53 AM,33.1,32.0,96,29.61,5.0,Calm,Calm,-,0.02,Snow,Light Snow,0,2012-12-12 10:53:00
3:12 AM,33.8,32.0,93,29.56,3.0,Calm,Calm,-,0.00,Snow,Light Snow,0,2012-12-12 11:12:00
3:17 AM,33.8,32.0,93,29.56,1.8,Calm,Calm,-,0.00,Snow,Light Snow,0,2012-12-12 11:17:00
4:53 AM,33.1,32.0,96,29.63,1.2,Calm,Calm,-,0.02,Snow,Light Snow,0,2012-12-12 12:53:00
5:51 AM,33.8,32.0,93,29.59,2.0,Calm,Calm,-,0.01,Snow,Light Snow,0,2012-12-12 13:51:00
5:53 AM,33.1,32.0,96,29.65,2.0,Calm,Calm,-,0.01,Snow,Light Snow,0,2012-12-12 13:53:00
6:08 AM,33.8,32.0,93,29.60,3.0,Calm,Calm,-,0.00,,Overcast,0,2012-12-12 14:08:00
6:45 AM,33.8,32.0,93,29.61,2.5,Calm,Calm,-,0.00,,Overcast,0,2012-12-12 14:45:00
6:53 AM,32.0,32.0,100,29.67,1.8,Calm,Calm,-,0.00,,Overcast,0,2012-12-12 14:53:00
7:31 AM,32.0,32.0,100,29.63,0.8,Calm,Calm,-,N/A,,Mist,0,2012-12-12 15:31:00
7:53 AM,32.0,32.0,100,29.69,0.2,Calm,Calm,-,N/A,Fog,Fog,0,2012-12-12 15:53:00
8:53 AM,32.0,32.0,100,29.72,0.2,Calm,Calm,-,N/A,Fog,Fog,0,2012-12-12 16:53:00
9:53 AM,32.0,32.0,100,29.75,0.2,SSE,3.5,-,N/A,Fog,Fog,160,2012-12-12 17:53:00
10:38 AM,33.8,33.8,100,29.70,1.2,SSE,3.5,-,N/A,,Overcast,160,2012-12-12 18:38:00
10:53 AM,33.1,33.1,100,29.76,1.8,South,4.6,-,N/A,,Overcast,170,2012-12-12 18:53:00
10:55 AM,33.8,33.8,100,29.71,2.5,South,4.6,-,N/A,,Overcast,180,2012-12-12 18:55:00
11:01 AM,33.8,33.8,100,29.71,4.0,South,3.5,-,N/A,,Overcast,180,2012-12-12 19:01:00
11:08 AM,33.8,32.0,93,29.71,2.5,South,5.8,-,0.00,Snow,Light Snow,180,2012-12-12 19:08:00
11:14 AM,33.8,32.0,93,29.72,1.5,South,4.6,-,0.00,Snow,Light Snow,170,2012-12-12 19:14:00
11:26 AM,33.8,33.8,100,29.72,3.0,South,4.6,-,0.00,,Overcast,170,2012-12-12 19:26:00
11:37 AM,33.8,33.8,100,29.72,4.0,SSE,4.6,-,0.00,,Overcast,160,2012-12-12 19:37:00
11:53 AM,33.1,33.1,100,29.78,3.0,South,4.6,-,0.00,,Overcast,170,2012-12-12 19:53:00
12:44 PM,33.8,33.8,100,29.73,2.5,South,5.8,-,0.01,Snow,Light Snow,180,2012-12-12 20:44:00
12:53 PM,33.1,33.1,100,29.79,4.0,South,4.6,-,0.01,,Overcast,190,2012-12-12 20:53:00
1:39 PM,33.8,33.8,100,29.75,1.8,South,5.8,-,0.00,Snow,Light Snow,190,2012-12-12 21:39:00
1:46 PM,33.8,32.0,93,29.75,2.0,South,5.8,-,0.00,Snow,Light Snow,190,2012-12-12 21:46:00
1:53 PM,33.1,32.0,96,29.81,2.0,South,5.8,-,0.00,Snow,Light Snow,180,2012-12-12 21:53:00
2:05 PM,33.8,32.0,93,29.76,3.0,South,5.8,-,0.00,Snow,Light Snow,180,2012-12-12 22:05:00
2:46 PM,33.8,32.0,93,29.77,2.5,SSE,4.6,-,0.01,Snow,Light Snow,160,2012-12-12 22:46:00
2:53 PM,33.1,32.0,96,29.83,2.5,South,4.6,-,0.01,Snow,Light Snow,170,2012-12-12 22:53:00
3:04 PM,32.0,32.0,100,29.78,3.0,SSE,4.6,-,0.00,Snow,Light Snow,160,2012-12-12 23:04:00
4:00 PM,32.0,32.0,100,29.80,2.5,SSE,3.5,-,0.00,Snow,Light Snow,160,2012-12-13 00:00:00
4:04 PM,32.0,32.0,100,29.80,3.0,South,4.6,-,0.00,Snow,Light Snow,170,2012-12-13 00:04:00
4:17 PM,32.0,32.0,100,29.81,5.0,South,4.6,-,0.00,,Overcast,170,2012-12-13 00:17:00
4:53 PM,32.0,32.0,100,29.88,3.0,South,3.5,-,0.00,,Overcast,180,2012-12-13 00:53:00
5:38 PM,32.0,32.0,100,29.83,2.5,SSE,5.8,-,0.00,Snow,Light Snow,160,2012-12-13 01:38:00
5:53 PM,32.0,32.0,100,29.89,2.5,South,4.6,-,0.00,Snow,Light Snow,180,2012-12-13 01:53:00
6:03 PM,32.0,32.0,100,29.84,4.0,South,4.6,-,0.00,Snow,Light Snow,190,2012-12-13 02:03:00
6:53 PM,32.0,32.0,100,29.91,4.0,SSE,4.6,-,0.00,Snow,Light Snow,160,2012-12-13 02:53:00
7:53 PM,32.0,32.0,100,29.93,7.0,South,3.5,-,0.00,,Overcast,170,2012-12-13 03:53:00
8:11 PM,32.0,32.0,100,29.87,6.0,SSE,3.5,-,N/A,,Overcast,160,2012-12-13 04:11:00
8:37 PM,32.0,32.0,100,29.88,6.0,SSE,4.6,-,N/A,,Overcast,150,2012-12-13 04:37:00
8:53 PM,32.0,32.0,100,29.95,4.0,SSE,5.8,-,N/A,,Overcast,160,2012-12-13 04:53:00
9:53 PM,32.0,32.0,100,29.97,9.0,South,3.5,-,N/A,,Overcast,170,2012-12-13 05:53:00
10:53 PM,32.0,32.0,100,29.99,7.0,South,3.5,-,N/A,,Overcast,170,2012-12-13 06:53:00
11:53 PM,32.0,32.0,100,30.00,6.0,Calm,Calm,-,N/A,,Overcast,0,2012-12-13 07:53:00